Location: Carrières
(48.9495°N, 2.0407°E)
Time: 19:58:38
(UTC+00:00)

Transit 2A Rocket - Pass Details

Date: 23 April 2024
Orbit: 585 x 908 km, 66.7° (Epoch: 18 May)

Event Time Altitude Azimuth Distance (km) Brightness Sun altitude
Rises 09:24:40 0° 157° (SSE) 2,870 8.6 43.0°
Reaches altitude 10° 09:28:09 10° 127° (SE) 2,027 8.3 43.5°
Maximum altitude 09:30:00 12° 103° (ESE) 1,909 8.0 43.7°
Drops below altitude 10° 09:31:54 10° 79° (E) 2,104 7.8 44.0°
Sets 09:35:41 0° 51° (NE) 3,108 8.3 44.4°
